Theta_e
314 316 317 318 318 318 318 317 318 320 320 319 320 319 320 321 308 296 293 303 308 317 316 299 299 309 312 308 310 311 297 291 294 294 290 294 293 295 295 290 290 291 290 293 295
313 314 316 317 318 317 317 318 318 319 318 318 313 313 315 316 292 291 305 313 314 317 301 297 295 303 302 305 305 303 297 294 299 294 290 291 292 294 291 288 288 288 291 293 293
312 313 315 316 317 317 318 318 317 317 319 317 318 314 312 309 289 289 309 311 312 311 300 298 296 301 299 305 304 302 295 300 296 297 299 293 291 293 290 286 287 286 287 289 289
311 312 314 315 316 315 317 318 317 315 314 313 313 312 307 293 280 291 308 308 309 303 299 297 296 295 296 297 302 295 299 300 300 301 300 293 293 289 290 288 291 290 289 288 287
310 311 312 314 315 314 315 317 316 315 314 314 312 308 294 285 285 294 304 299 297 298 294 295 293 295 293 296 297 295 297 295 295 294 292 291 287 288 288 290 291 290 289 287 287
309 310 311 313 315 313 313 316 315 315 314 312 311 304 289 281 293 293 292 294 294 294 291 291 293 294 290 289 288 291 296 293 292 291 290 287 287 288 286 290 288 287 287 287 287
308 309 311 311 312 312 314 313 313 312 313 310 308 292 288 284 292 292 291 291 294 291 289 290 292 293 291 288 289 289 286 288 289 293 291 293 283 283 287 287 285 285 285 286 286
307 308 310 310 311 312 311 312 311 311 311 310 302 288 283 291 294 292 290 290 293 293 290 290 291 289 288 289 286 284 283 279 285 288 290 289 278 283 287 285 283 284 284 284 285
307 307 308 309 310 311 313 309 308 310 307 302 289 285 281 294 288 290 288 287 290 290 290 292 289 284 284 282 279 278 274 275 278 285 287 285 278 283 285 283 282 283 283 284 284
306 306 307 308 309 310 310 312 306 300 294 291 290 282 284 283 287 289 288 288 286 286 286 284 281 278 277 277 272 274 273 276 276 281 281 279 278 281 283 282 281 282 282 282 283
305 306 306 307 307 307 300 291 286 285 285 281 282 281 284 287 288 286 286 285 284 281 276 279 276 271 272 274 274 274 274 272 274 280 279 276 276 278 280 280 280 280 281 282 282
305 305 305 305 306 303 293 285 284 287 280 285 284 284 286 285 281 284 287 280 278 274 276 275 272 274 277 277 275 275 274 273 278 281 279 278 275 278 278 278 279 279 279 280 282
304 304 305 305 302 295 290 289 294 289 280 281 284 283 283 285 279 280 282 281 276 274 273 271 272 276 277 274 275 273 273 273 276 280 279 279 274 275 277 278 279 278 279 280 280
303 303 305 305 295 289 288 291 294 290 277 278 281 283 283 283 279 284 282 279 277 275 273 273 275 275 274 273 274 273 275 275 277 275 270 280 263 274 275 275 276 276 276 277 279
303 301 302 298 289 287 290 292 293 287 266 279 280 287 283 280 279 280 282 281 274 274 274 272 272 272 272 273 275 274 276 276 277 274 270 271 266 271 274 273 273 274 276 277 278
302 299 298 289 288 287 290 290 286 276 264 277 279 278 278 278 279 279 277 279 278 276 276 273 274 273 272 275 276 277 276 276 274 272 261 267 267 267 271 274 273 274 276 277 277
301 300 292 289 285 287 290 286 276 269 276 274 275 277 275 275 276 276 273 271 270 268 269 273 272 274 275 273 275 275 271 258 260 258 261 269 265 269 273 274 274 274 275 276 277
299 296 293 289 287 290 286 281 268 267 270 278 277 276 273 274 274 274 272 269 271 269 265 265 267 272 275 272 270 272 268 262 257 259 261 268 262 269 275 276 275 276 276 276 276
299 286 286 289 289 288 283 270 271 272 277 276 275 272 271 274 272 271 269 268 271 270 265 263 267 273 276 274 272 270 266 270 255 249 255 263 269 274 275 273 273 274 274 274 275
287 282 284 289 289 284 278 275 273 278 278 278 273 272 267 270 269 268 268 272 272 274 272 268 264 272 274 274 275 272 273 263 258 255 254 261 262 265 273 273 273 272 273 274 275
285 281 283 289 284 281 275 270 278 278 278 276 273 272 271 270 269 266 268 272 271 272 274 270 266 268 272 269 267 268 268 265 262 260 255 255 264 266 272 275 275 275 274 274 275
282 277 284 285 278 262 268 272 280 276 277 277 276 275 273 272 270 268 268 272 276 274 269 272 262 261 266 270 270 270 267 266 259 258 260 261 262 274 273 276 275 274 276 275 276
281 278 284 284 273 264 272 276 276 276 276 276 275 275 273 272 266 271 269 274 276 275 271 271 262 257 264 267 270 267 270 268 262 260 256 257 263 272 274 273 275 274 275 275 276
281 278 280 278 277 275 269 269 271 277 276 277 275 275 273 270 271 264 269 275 276 274 280 274 264 262 263 264 264 264 266 265 261 255 260 262 265 270 270 271 273 274 275 274 275
278 276 278 272 272 275 275 271 270 271 276 275 274 273 272 263 268 263 268 272 274 278 274 268 259 262 262 265 265 267 268 267 263 263 260 265 265 270 271 271 274 276 276 276 277
276 275 275 271 275 275 274 271 273 273 273 271 273 274 272 267 271 266 269 271 271 273 272 271 258 261 258 263 266 265 268 269 269 268 267 268 268 275 275 276 275 275 276 276 276
281 282 281 274 274 273 274 275 275 275 275 276 275 273 272 273 274 273 274 274 274 271 266 263 260 255 256 261 258 260 264 268 268 268 269 265 270 272 271 273 274 274 275 276 277
Wind_Speed
14 15 15 14 14 15 14 13 11 8 6 6 8 12 10 7 6 10 17 13 15 23 17 6 5 6 5 5 6 2 5 8 5 5 5 10 7 13 14 21 27 12 13 12 16
14 14 14 15 15 15 15 17 13 8 4 4 8 15 8 2 5 12 16 31 28 23 8 8 8 7 5 4 4 6 3 8 7 12 17 20 16 8 12 20 18 19 16 16 17
15 16 16 15 14 15 16 16 16 15 10 8 9 10 9 1 8 8 26 32 27 20 4 2 2 4 8 4 5 4 4 16 16 16 11 17 28 14 8 16 18 18 16 17 20
16 16 16 15 14 14 14 13 13 13 13 11 10 9 12 7 7 8 29 28 21 13 4 8 9 7 7 11 6 15 15 12 12 13 9 17 15 23 22 11 14 15 14 19 23
15 15 16 15 14 16 13 10 11 10 13 14 11 8 9 10 4 11 26 20 8 8 9 5 8 5 8 10 22 18 13 20 21 25 24 23 25 16 19 15 14 15 20 22 20
14 15 15 14 13 17 14 11 11 10 10 13 14 9 9 14 8 10 14 9 12 7 8 10 5 6 9 6 11 6 19 19 22 23 19 23 13 6 14 12 14 16 18 18 19
14 14 15 14 14 15 10 12 13 15 11 13 10 5 17 7 7 13 11 5 8 7 6 6 5 7 4 17 4 15 20 14 16 2 4 3 20 14 7 10 14 16 16 18 18
13 13 14 14 13 12 15 10 10 11 12 7 13 7 7 1 8 23 15 7 9 6 4 7 7 9 7 4 6 6 6 5 12 10 8 8 6 8 5 9 13 13 13 15 17
11 12 12 12 13 11 9 17 11 11 13 10 9 7 6 14 13 10 7 7 8 6 10 4 9 7 10 5 6 10 4 7 5 18 4 8 9 6 6 9 12 11 11 12 13
11 10 10 12 13 9 7 3 12 13 10 3 6 6 10 10 8 11 8 6 8 5 11 16 10 8 9 10 2 2 6 6 6 9 21 18 13 6 6 9 9 9 9 10 11
11 8 9 9 7 7 2 4 7 13 14 7 4 5 5 11 4 12 8 8 9 12 9 12 17 8 7 6 4 6 8 9 3 2 9 8 9 5 5 5 7 6 7 8 8
11 9 7 0 9 7 6 6 3 7 10 5 3 4 3 5 9 26 17 11 12 9 5 9 12 7 4 4 8 7 7 5 3 5 7 8 6 3 3 3 4 4 5 5 4
11 9 6 2 2 8 6 4 2 1 9 5 3 5 5 7 6 14 10 5 7 16 17 11 3 7 3 9 6 6 5 2 4 4 6 6 1 3 2 3 4 5 4 5 6
13 11 7 3 7 1 3 2 2 1 8 13 10 7 7 4 7 5 5 3 9 4 4 10 6 4 6 7 5 3 2 2 5 4 4 3 4 4 4 3 2 3 4 4 5
14 8 17 8 7 4 4 2 2 4 6 7 8 4 5 10 6 12 6 9 6 5 4 0 6 7 7 4 4 2 1 3 2 4 4 5 4 4 5 5 4 1 3 5 6
13 9 4 7 5 1 1 1 4 12 4 3 4 7 5 8 7 8 9 8 2 6 9 4 1 4 2 3 3 3 3 5 4 3 5 5 4 4 5 5 4 2 3 4 6
7 16 7 2 3 2 0 4 10 9 4 4 3 5 3 7 7 10 6 10 6 6 7 4 4 5 4 4 4 7 5 4 7 7 5 3 3 8 3 4 7 7 5 4 5
8 7 7 3 1 3 4 8 8 4 6 1 1 2 4 5 4 7 3 5 6 5 5 4 6 7 9 3 1 4 4 6 4 1 5 5 5 5 3 5 4 5 4 4 6
5 3 3 5 2 2 7 7 10 8 6 8 3 3 3 1 3 5 5 2 2 4 7 5 1 4 3 3 2 4 6 3 10 1 4 3 7 3 1 3 4 6 5 6 8
3 3 2 6 2 4 8 5 3 2 5 3 4 2 4 3 2 5 0 2 2 3 1 3 3 2 4 2 6 6 5 4 5 3 5 6 6 7 6 8 8 6 8 7 8
4 4 2 2 4 7 5 6 4 1 2 3 4 4 2 4 3 2 4 1 2 2 4 3 4 4 2 5 0 4 2 7 6 3 6 2 9 7 6 5 9 8 7 7 9
3 2 2 1 7 1 4 7 4 3 1 3 5 4 5 4 3 3 3 3 4 3 3 2 5 2 1 3 2 1 3 4 7 5 1 3 11 1 5 6 5 6 7 8 7
4 2 2 2 5 1 3 3 2 5 5 5 4 3 2 5 3 2 2 1 4 3 5 4 2 4 8 5 3 2 4 5 5 4 6 7 10 2 4 4 5 7 10 8 7
4 1 5 5 2 11 8 3 4 0 3 3 5 4 5 3 4 5 2 2 3 2 7 6 3 6 8 7 4 2 3 4 7 5 5 10 8 10 9 7 9 9 10 8 9
4 5 2 4 3 5 5 7 7 7 2 3 2 5 8 5 3 3 3 3 1 4 3 5 4 2 4 5 3 5 7 10 10 7 8 3 9 18 8 7 11 10 13 11 11
7 6 3 2 3 7 1 8 12 6 10 6 6 11 7 9 10 12 9 5 6 3 4 2 2 3 5 3 3 10 13 14 15 13 15 19 23 25 22 16 12 14 11 11 12
1 2 4 1 3 6 7 8 11 12 3 1 8 7 6 5 4 4 4 5 8 9 4 5 6 4 7 4 6 11 10 14 9 6 19 15 16 5 7 8 9 9 9 11 13
Wind_Direction
22 22 21 22 20 21 21 32 32 25 13 350 350 332 316 346 23 28 44 334 328 325 328 320 24 359 47 61 12 341 96 163 123 101 82 22 85 70 64 70 59 63 53 24 8
22 22 21 22 20 21 19 27 25 25 27 32 33 5 347 50 53 33 346 345 338 336 349 12 358 15 52 58 31 40 91 134 80 103 93 62 47 81 54 43 44 42 34 29 28
22 23 19 18 21 16 16 17 27 40 38 10 348 8 12 84 63 325 339 339 336 336 238 311 350 56 48 39 23 44 65 108 114 120 79 91 61 45 46 45 35 32 25 26 28
26 25 19 14 13 14 14 19 21 41 50 26 2 1 36 42 64 295 333 331 335 334 19 17 27 51 68 62 33 92 59 68 43 71 67 65 85 63 53 61 41 41 38 42 32
27 26 22 13 25 27 24 22 21 4 16 11 29 30 54 47 4 302 328 326 350 359 34 19 42 68 77 87 71 71 81 78 79 79 76 71 67 60 48 44 44 48 41 40 35
28 31 24 18 17 17 11 22 26 22 34 23 2 18 72 62 304 312 323 325 11 20 18 24 47 84 65 55 56 105 77 74 71 73 75 70 40 73 25 52 54 45 51 51 46
32 29 24 16 8 5 13 44 41 26 44 32 16 77 59 34 323 325 355 324 349 16 38 4 316 82 122 89 122 107 99 83 31 51 122 76 41 55 28 37 44 40 41 43 39
33 32 23 10 0 353 29 34 36 40 41 12 28 59 81 283 309 11 346 336 1 12 44 17 19 86 51 92 37 46 46 57 30 6 18 95 63 51 35 50 50 43 42 40 39
28 36 24 1 352 336 340 54 33 53 37 22 36 75 2 334 7 328 10 330 306 352 30 31 60 64 21 43 37 22 67 26 24 13 107 94 112 90 63 65 58 47 46 43 36
27 33 24 353 345 319 307 9 35 37 3 41 73 35 14 316 316 322 321 355 28 350 17 26 49 58 26 25 67 59 104 56 41 6 67 85 98 76 56 62 55 46 41 42 36
22 30 21 3 357 342 358 15 22 8 32 84 313 91 294 300 311 354 341 347 17 51 50 21 58 33 321 347 58 92 84 92 15 353 66 76 95 83 51 52 51 38 32 32 25
17 15 20 306 29 21 66 77 121 171 80 19 26 25 314 324 7 356 3 60 38 44 349 46 52 330 286 18 60 48 83 50 53 5 94 123 98 109 82 74 70 54 40 31 10
13 20 14 79 66 43 64 113 296 249 81 19 29 28 343 15 45 335 23 20 67 54 53 77 299 314 62 42 57 41 70 13 128 93 53 135 48 206 117 108 66 40 26 20 8
12 33 55 114 50 182 48 261 292 282 76 336 350 6 355 353 48 350 27 58 34 92 95 74 338 18 37 62 3 74 338 201 126 84 155 5 271 267 191 160 77 27 19 356 350
11 45 59 78 140 74 166 254 304 52 55 319 325 301 356 73 303 357 347 30 67 357 102 147 4 15 35 8 339 93 39 127 99 91 83 342 71 259 137 225 209 237 354 338 332
24 49 72 41 58 349 289 63 44 44 262 10 335 352 15 21 16 306 17 29 97 53 40 94 51 54 311 304 338 287 124 47 55 63 35 269 110 260 192 206 172 209 255 303 316
30 47 54 80 149 171 119 48 39 106 318 285 359 19 83 3 13 17 35 26 46 60 9 7 24 333 36 350 10 46 52 352 5 15 209 336 36 245 212 179 170 190 224 269 293
64 52 36 58 105 128 59 50 76 249 216 132 117 71 79 2 31 9 59 41 31 48 72 61 347 12 339 70 250 30 119 137 204 310 277 331 244 255 214 187 172 191 228 281 296
109 37 42 347 359 55 77 57 196 199 152 145 103 91 7 10 112 63 37 111 7 25 120 105 349 328 48 13 67 297 47 146 103 71 42 270 286 266 168 200 237 248 258 279 295
90 69 6 318 56 64 74 203 165 165 124 114 150 133 163 287 76 61 247 231 156 35 141 213 54 13 300 330 31 86 144 49 7 52 318 291 279 246 217 226 238 248 247 272 293
56 67 256 15 59 49 143 205 167 132 108 133 157 121 132 151 83 146 185 274 212 55 80 128 101 287 8 26 47 10 53 54 107 106 159 281 271 213 200 225 226 237 246 272 293
108 48 292 122 55 344 128 167 135 152 70 112 104 111 143 153 122 137 190 205 143 136 102 42 139 103 247 287 245 258 184 122 115 265 176 139 273 219 218 231 202 235 273 291 283
156 197 309 124 134 340 288 89 130 144 181 158 124 126 119 141 78 189 179 20 129 126 160 189 336 19 343 357 1 191 180 110 102 79 208 137 262 259 254 274 246 268 282 283 279
101 60 335 48 23 134 143 189 145 8 136 122 119 101 100 100 51 182 176 197 161 128 116 92 97 163 193 205 137 195 201 154 125 127 192 231 291 264 247 249 277 280 268 259 269
50 242 204 218 283 131 122 128 137 167 176 171 74 189 156 115 68 196 239 134 72 192 79 108 165 145 270 270 341 242 216 182 201 183 175 251 218 264 269 274 284 282 284 289 281
136 136 355 116 91 99 240 214 161 173 148 229 204 171 164 151 184 190 145 188 181 126 140 80 219 86 304 4 311 273 253 224 221 227 251 257 272 271 274 275 272 267 269 267 263
192 52 116 207 126 108 208 183 191 135 267 220 153 120 164 203 131 93 92 112 147 143 137 123 132 89 266 336 333 292 239 192 186 197 216 224 233 263 261 241 248 257 263 267 271